This is the latest recevied weather packets stored in our database for station/object VK6WB. If no packets are shown the sender has not sent any weather packets the latest 10 day(s).
| Time | Temp. | Humidity | Pressure | Rain* | Wind** | Luminosity | Snow |
|---|---|---|---|---|---|---|---|
| 1778050204 | 23.33° C | 37% | 1023.2 hPa | 0 mm | - | 65 W/m² | - |
| 1778049605 | 23.33° C | 38% | 1023.4 hPa | 0 mm | - | 65 W/m² | - |
| 1778049004 | 22.78° C | 38% | 1023.4 hPa | 0 mm | - | 65 W/m² | - |
| 1778048404 | 22.78° C | 38% | 1023.4 hPa | 0 mm | - | 65 W/m² | - |
| 1778047805 | 22.78° C | 38% | 1023.4 hPa | 0 mm | - | 65 W/m² | - |
| 1778047204 | 22.78° C | 38% | 1023.5 hPa | 0 mm | - | 65 W/m² | - |
| 1778046605 | 22.22° C | 37% | 1023.5 hPa | 0 mm | - | 65 W/m² | - |
| 1778046004 | 22.22° C | 36% | 1023.6 hPa | 0 mm | - | 65 W/m² | - |
| 1778045404 | 22.78° C | 37% | 1023.5 hPa | 0 mm | - | 65 W/m² | - |
| 1778044805 | 22.78° C | 36% | 1023.7 hPa | 0 mm | - | 65 W/m² | - |
| 1778044204 | 22.78° C | 36% | 1023.7 hPa | 0 mm | - | 65 W/m² | - |
| 1778043605 | 22.22° C | 37% | 1023.8 hPa | 0 mm | - | 65 W/m² | - |
| 1778043004 | 22.22° C | 36% | 1023.8 hPa | 0 mm | - | 65 W/m² | - |
| 1778042405 | 21.67° C | 36% | 1024 hPa | 0 mm | - | 65 W/m² | - |
| 1778041804 | 21.67° C | 34% | 1024.1 hPa | 0 mm | - | 65 W/m² | - |
| 1778041205 | 21.67° C | 35% | 1024.3 hPa | 0 mm | - | 65 W/m² | - |
| 1778040604 | 21.67° C | 35% | 1024.5 hPa | 0 mm | - | 65 W/m² | - |
| 1778040005 | 21.67° C | 31% | 1024.5 hPa | 0 mm | - | 65 W/m² | - |
| 1778039404 | 21.67° C | 31% | 1024.7 hPa | 0 mm | - | 65 W/m² | - |
| 1778038804 | 21.11° C | 31% | 1024.7 hPa | 0 mm | - | 65 W/m² | - |
| 1778038204 | 21.11° C | 29% | 1025 hPa | 0 mm | - | 65 W/m² | - |
| 1778037605 | 21.11° C | 29% | 1025 hPa | 0 mm | - | 65 W/m² | - |
| 1778037004 | 20.56° C | 28% | 1025.1 hPa | 0 mm | - | 65 W/m² | - |
| 1778036405 | 20.56° C | 25% | 1025.2 hPa | 0 mm | - | 65 W/m² | - |
| 1778035804 | 20.56° C | 26% | 1025 hPa | 0 mm | - | 65 W/m² | - |
* Rain latest hour (hover to see other rain measurements)
** Current wind speed in m/s (hover to see current wind gust speed)